GFSNE_prec_cloud_336.txt.gz
Cloud_Cover
100 100 100 100 100 100 74 32 14 88 100 30 44 34 36 82 89 97 100 100 100 100 100 91 100 100 100 100 36 9 6 58 5 5 52 51 5 5
57 60 92 100 100 100 100 92 100 76 100 5 19 5 6 5 26 83 81 100 100 100 100 100 100 99 100 100 100 97 7 5 5 8 5 6 28 29
100 91 69 100 85 100 100 100 100 100 100 5 14 86 98 80 57 58 93 99 100 100 100 100 100 100 99 100 100 100 100 6 6 21 12 97 74 76
100 100 83 55 100 100 100 100 100 100 100 100 100 100 99 8 7 9 81 100 100 100 100 100 100 100 100 100 100 100 100 100 77 95 74 94 59 60
100 100 95 66 100 99 100 100 100 100 100 100 100 100 100 75 29 27 30 66 89 97 100 100 100 100 100 100 99 99 100 100 87 5 81 72 32 48
100 100 100 20 51 100 100 100 100 100 100 100 100 100 89 55 55 26 64 53 30 36 39 90 100 100 100 100 100 98 100 100 100 46 12 27 37 79
94 20 88 29 9 87 65 100 100 100 100 100 100 94 94 100 68 77 49 30 33 5 28 92 100 100 100 100 100 100 100 100 100 100 64 30 50 26
94 100 70 73 5 5 12 28 84 100 100 100 100 100 99 100 100 82 82 56 20 53 59 78 100 100 100 100 100 100 100 97 100 100 100 100 85 51
4 93 100 100 70 5 3 14 56 100 100 100 100 100 100 100 100 65 44 27 5 31 100 100 100 100 100 100 100 100 98 93 70 98 100 100 100 75
0 0 18 98 93 64 5 5 12 8 100 100 100 100 100 100 100 100 100 14 17 40 88 100 100 100 100 100 100 100 99 39 24 30 57 100 99 64
0 0 0 2 96 97 98 30 34 20 85 100 100 100 100 100 100 99 98 75 31 30 96 64 95 100 100 97 100 100 100 100 85 24 43 100 100 100
0 0 0 0 0 44 100 37 40 64 5 80 100 100 76 46 100 90 96 100 52 37 53 85 89 53 67 100 89 100 100 100 100 100 100 100 100 100
0 0 0 0 0 44 100 80 86 100 39 100 100 100 100 91 28 50 65 86 100 42 66 78 35 82 88 100 100 100 34 100 97 100 100 100 100 100
4 0 0 0 29 100 100 100 100 100 98 100 100 100 52 7 5 5 46 68 60 24 33 84 40 46 98 100 88 100 100 98 87 97 100 100 100 100
1 0 81 100 100 90 100 100 100 100 100 100 100 100 99 70 31 54 51 68 100 87 49 100 42 100 100 100 100 94 100 100 96 82 66 100 96 100
69 60 98 99 100 100 100 100 100 100 100 83 83 99 88 95 46 99 100 98 100 100 100 97 59 100 100 100 100 37 98 100 100 81 96 93 100 81
88 33 54 94 96 96 100 100 100 100 100 52 60 84 49 100 96 100 100 100 100 100 100 100 100 100 100 100 100 76 69 100 100 100 100 100 100 100
11 0 7 8 0 0 1 16 84 100 100 46 46 4 8 6 98 98 100 100 100 100 100 100 100 100 100 96 100 100 100 100 94 100 99 100 100 100
38 0 0 0 0 0 0 0 0 1 1 66 2 0 0 22 60 96 100 100 100 100 100 100 100 100 100 100 100 100 99 99 64 72 45 95 100 100
1 0 0 0 0 0 0 0 0 0 16 5 2 0 0 0 1 4 66 100 100 100 100 100 100 100 100 100 100 99 15 78 64 45 52 98 78 89
0 0 0 0 0 18 7 0 0 0 0 1 0 0 0 0 0 3 22 100 100 100 100 100 95 100 100 100 97 100 100 61 96 100 61 72 100 100
0 0 0 0 0 6 95 0 0 4 2 0 0 0 0 0 0 0 8 45 100 100 100 100 100 100 100 100 100 89 83 100 100 100 100 100 100 100
0 0 0 0 11 0 63 48 0 0 96 49 10 27 26 42 36 52 36 73 96 100 41 99 100 100 100 100 100 100 100 100 99 89 100 100 100 100

GFSNE_prec_cloud_339.txt.gz
Cloud_Cover
5 77 71 44 43 7 82 100 100 100 100 87 100 77 69 54 97 100 99 100 100 100 89 60 100 100 100 100 60 88 5 5 41 45 9 23 13 5
22 100 85 62 13 11 73 100 100 83 100 100 98 100 56 99 100 100 100 100 97 100 100 43 96 100 100 100 100 96 7 5 5 14 30 10 5 5
70 50 99 100 100 67 100 91 100 98 100 98 100 100 100 100 100 100 93 36 41 97 87 100 100 100 100 100 100 100 100 70 5 5 5 66 88 5
90 92 100 100 100 100 100 100 100 100 100 98 100 100 100 100 100 100 62 52 44 16 55 88 100 89 88 100 100 100 100 100 87 52 5 98 90 82
93 90 100 99 100 100 100 100 100 100 100 81 87 98 84 84 100 99 100 74 60 45 86 100 98 100 71 60 88 100 100 100 100 100 8 9 32 93
4 33 100 87 99 88 90 88 100 100 95 100 100 98 100 100 100 87 100 100 53 61 21 8 36 77 100 98 97 100 100 100 100 100 100 11 5 35
0 3 97 100 97 96 52 36 64 96 54 89 100 100 76 100 100 100 100 96 61 17 50 66 20 30 89 100 94 100 100 100 100 100 100 100 45 6
0 0 2 74 100 100 93 100 38 95 99 22 98 100 100 100 100 100 100 100 83 63 14 100 99 20 6 6 100 100 100 100 100 100 100 100 100 100
0 0 0 10 92 71 90 64 79 27 63 6 19 70 100 100 100 100 100 100 100 90 14 87 100 100 70 100 100 100 100 100 100 100 100 100 100 100
1 0 0 0 0 0 16 98 54 43 27 97 63 46 100 100 100 100 100 100 100 100 21 34 80 84 31 54 100 100 100 100 88 100 100 100 100 99
5 1 0 0 0 0 0 3 69 73 74 69 21 5 80 100 100 100 100 100 100 100 59 23 14 41 100 100 100 100 100 100 100 99 100 95 66 100
12 4 0 0 0 0 0 0 0 57 88 76 10 7 91 100 100 100 100 100 100 100 92 59 86 51 85 99 100 100 100 95 100 100 73 99 100 100
0 0 0 0 5 2 24 0 0 15 6 100 100 95 76 100 100 100 100 100 100 94 55 5 5 6 14 32 56 84 94 100 100 85 100 100 100 100
0 0 4 2 0 8 45 3 34 82 29 2 100 100 92 100 100 100 100 100 92 86 12 37 22 65 29 90 30 48 93 100 100 100 85 78 100 100
0 0 55 94 91 76 95 100 100 60 92 46 13 100 100 100 100 100 100 100 100 100 95 99 71 42 59 45 35 95 88 100 96 99 100 97 84 100
13 8 0 40 91 42 86 47 54 1 90 5 0 13 100 100 100 100 100 100 100 100 100 100 100 72 100 99 46 29 81 99 100 91 100 100 96 76
32 0 0 0 0 28 67 16 8 57 100 49 0 0 43 100 100 100 100 100 100 100 100 99 100 98 89 100 93 37 91 100 100 100 100 100 100 99
10 0 0 0 0 0 0 0 0 3 0 0 0 0 0 73 100 100 100 100 100 100 100 100 100 100 100 100 100 98 83 100 100 100 100 94 100 100
2 0 0 0 0 0 0 0 0 0 0 0 0 0 1 0 1 93 100 100 20 96 100 100 100 100 100 100 100 93 96 100 100 100 100 97 100 67
0 0 0 0 0 0 0 0 0 0 0 0 0 0 0 8 0 0 0 11 51 48 18 100 100 100 100 100 100 100 100 95 100 100 100 100 100 100
2 2 0 0 0 0 0 0 0 0 0 0 0 0 0 0 0 75 100 50 35 0 1 10 81 100 100 100 100 100 100 100 100 100 100 100 100 100
100 96 76 22 0 4 0 0 0 0 2 0 0 0 0 0 0 0 2 3 3 0 2 4 52 100 100 100 100 100 100 100 100 100 100 100 100 100
100 100 100 100 56 36 41 3 0 0 8 0 0 0 0 0 0 5 0 0 5 29 19 59 64 100 97 100 100 100 100 100 100 100 100 100 100 100

GFSNE_prec_cloud_342.txt.gz
Cloud_Cover
100 56 70 5 99 69 100 100 99 41 100 100 100 100 100 100 100 100 100 100 100 100 100 100 100 100 92 100 100 57 100 82 5 5 90 24 3 1
63 90 70 44 100 67 100 100 100 100 100 100 53 95 100 100 100 100 100 100 100 47 54 100 100 100 100 97 100 60 40 61 94 2 5 5 5 14
24 56 21 63 100 100 100 100 100 83 71 100 99 85 100 100 100 100 100 100 100 100 96 3 23 100 100 100 92 100 59 17 74 5 5 5 5 5
6 40 100 100 100 100 100 100 100 100 100 93 92 100 99 100 100 100 100 100 100 100 42 5 9 36 100 100 100 100 100 91 5 5 5 51 96 18
13 30 32 100 100 99 89 83 99 100 90 91 100 99 75 62 100 86 97 100 100 100 100 90 5 34 36 95 100 100 90 100 91 40 22 5 5 19
11 3 5 5 42 73 98 95 46 62 40 64 72 41 49 56 75 100 100 100 100 100 100 100 32 31 82 90 93 100 82 91 100 99 95 43 5 5
5 12 16 12 10 98 100 73 72 5 41 100 90 8 100 100 100 100 100 100 100 100 100 100 75 17 26 82 94 98 100 100 100 100 100 100 100 42
14 11 0 0 0 0 68 76 84 56 44 66 5 22 77 100 100 100 100 100 100 100 100 100 100 25 18 6 44 100 88 89 100 100 88 100 100 100
5 5 5 5 0 0 0 20 75 100 89 6 6 15 18 99 100 100 100 100 100 100 100 100 100 100 68 82 95 46 72 98 100 100 100 97 82 86
0 2 5 5 5 4 0 0 1 11 89 40 5 5 37 64 100 94 97 80 100 100 100 100 100 100 85 74 94 51 100 100 100 100 100 100 93 72
2 0 0 0 5 5 5 0 0 0 32 38 5 34 5 5 44 50 53 85 100 100 100 100 100 100 100 97 74 98 100 100 100 100 100 100 100 100
0 3 0 3 64 5 1 0 0 0 0 0 61 56 55 41 21 22 100 97 100 100 100 100 100 100 100 100 100 100 100 99 96 100 100 100 100 100
0 0 0 0 0 0 1 0 0 14 0 0 1 83 68 80 60 24 100 100 100 100 100 100 100 100 100 100 100 100 100 100 98 82 100 100 100 100
0 0 0 61 14 0 34 0 0 47 1 0 0 0 80 98 100 100 100 100 100 90 100 100 100 100 100 99 72 100 100 73 86 80 100 100 100 100
0 0 12 4 46 75 78 38 85 6 0 0 2 0 0 3 98 100 100 100 99 100 100 100 100 98 100 100 100 100 100 100 100 99 100 100 93 81
2 31 7 1 21 13 20 16 0 0 0 0 0 3 1 0 0 57 100 100 100 100 100 100 100 100 92 77 83 100 100 100 100 98 48 96 99 99
0 0 0 0 0 0 0 0 0 0 0 0 0 0 0 5 0 0 16 100 100 100 100 100 100 96 100 100 90 97 89 100 100 100 98 82 74 88
9 0 0 0 0 0 0 0 0 0 0 0 0 0 0 0 16 3 0 1 100 100 100 100 100 100 100 100 100 100 83 65 100 100 100 100 98 99
5 0 1 0 0 0 0 0 0 0 0 0 0 0 0 0 11 57 52 28 12 98 100 100 100 100 100 100 100 100 100 100 100 100 100 100 100 99
29 37 26 6 0 0 30 21 12 0 0 0 0 0 0 0 0 0 1 52 56 27 53 100 100 100 100 100 100 100 98 100 100 100 100 100 100 83
61 59 75 87 100 86 49 77 76 40 0 0 0 0 1 0 0 0 3 27 54 100 100 89 100 100 100 100 100 100 100 98 100 100 100 100 100 100
100 96 52 94 18 25 100 100 100 93 13 0 0 20 56 30 13 3 3 99 95 100 100 99 99 89 57 99 100 100 100 100 100 100 100 100 100 100
100 100 100 99 100 100 100 100 100 100 89 44 55 88 100 95 92 84 77 100 100 84 100 100 18 4 68 81 81 94 100 100 100 100 100 100 100 100

GFSNE_prec_cloud_345.txt.gz
Cloud_Cover
0 1 6 1 18 100 37 100 100 100 100 100 100 99 95 63 65 100 100 100 100 100 100 100 100 100 100 100 86 100 100 100 6 16 5 0 0 0
5 4 7 4 4 88 82 100 100 100 100 100 100 100 48 53 99 85 59 100 100 100 100 100 37 34 100 100 100 100 100 100 100 70 50 4 0 0
12 23 20 2 5 79 100 100 100 100 100 100 100 100 93 98 88 100 95 100 100 100 100 100 100 20 19 100 100 100 100 100 91 100 94 32 1 2
100 100 44 35 13 74 91 94 100 100 99 100 100 32 100 96 94 86 100 100 100 100 100 100 100 100 76 70 81 100 100 100 90 17 98 16 5 1
31 96 29 0 2 5 5 67 100 38 93 100 80 77 21 99 89 67 6 100 100 100 100 100 100 100 100 96 36 94 100 100 100 100 47 18 85 6
12 8 28 10 3 1 16 14 5 12 22 52 68 22 100 100 100 100 100 100 100 100 100 100 100 100 99 99 30 16 88 100 100 100 100 8 14 5
7 89 24 3 2 3 5 0 2 88 100 91 11 9 95 100 100 100 100 100 100 100 100 100 100 100 100 100 32 87 53 99 100 100 100 100 22 6
30 8 2 0 0 0 2 5 0 9 72 87 13 5 5 97 100 100 100 95 100 99 100 100 100 100 100 100 100 87 88 100 100 27 76 100 100 100
13 7 14 2 2 0 0 0 4 4 1 5 50 6 5 47 24 92 84 74 100 100 100 100 100 100 97 96 100 100 58 88 100 84 89 96 90 100
0 0 0 0 0 0 0 0 0 3 3 0 0 4 22 5 5 5 71 100 100 70 100 100 100 100 100 99 100 100 100 89 100 100 100 96 86 94
2 1 0 0 0 0 0 0 0 0 0 0 0 0 0 35 8 20 26 5 95 100 100 100 100 89 99 100 100 98 87 71 93 100 100 100 100 100
0 0 0 0 0 0 0 0 0 0 0 0 0 35 54 0 35 8 5 1 35 99 94 100 100 100 100 100 96 100 100 100 62 87 100 100 100 100
0 0 0 0 0 0 5 0 0 0 0 0 0 0 0 0 0 0 2 55 24 20 100 100 100 100 100 100 100 100 100 100 100 37 100 100 100 88
0 0 0 35 47 0 43 0 0 40 2 10 0 0 0 4 8 0 0 10 100 46 97 100 89 96 100 100 100 100 100 100 100 100 100 77 100 100
0 0 0 0 0 1 4 0 34 0 0 0 1 0 0 0 0 70 0 0 100 100 100 100 100 98 100 100 100 100 100 100 100 100 100 100 100 100
0 0 0 0 0 0 0 0 0 0 0 0 0 0 0 0 0 1 1 0 0 96 100 100 100 99 100 100 94 93 57 78 88 100 100 100 100 100
0 0 0 0 1 0 0 0 0 0 0 0 0 0 0 0 0 28 47 4 0 0 81 100 100 100 100 100 82 83 100 100 100 81 81 100 100 100
5 0 0 0 0 31 1 0 0 0 0 0 0 8 6 0 0 3 100 14 8 0 0 81 100 100 100 100 97 14 19 92 100 100 100 100 100 100
7 43 47 40 1 4 5 0 0 0 0 0 0 51 4 0 0 0 23 90 99 4 0 50 99 100 100 100 99 99 37 71 63 94 58 39 97 100
75 92 99 100 100 100 98 96 85 70 94 43 0 0 64 52 0 27 52 0 78 74 7 35 3 0 58 100 100 100 100 86 83 100 100 93 100 100
100 77 69 91 88 76 99 87 85 57 78 100 100 47 0 11 67 9 0 64 89 6 66 0 74 81 16 100 59 100 100 100 100 100 100 100 100 100
100 100 100 100 100 97 50 28 24 91 89 3 81 100 1 65 17 65 39 0 68 90 3 90 100 28 35 49 66 4 25 100 92 100 100 100 100 100
100 100 100 100 100 100 100 72 19 64 93 100 65 39 100 0 86 73 72 99 96 54 34 0 96 26 19 12 85 81 100 97 66 88 100 100 100 100